{"data":{"norad_id":55396,"epoch":"2026-05-25T05:29:14.521056Z","epoch_age_seconds":48452,"freshness":"FRESH","line1":"1 55396U 23014F   26145.22864029 -.00000150  00000+0 -47836-5 0  9999","line2":"2 55396  69.9993 231.3334 0003370 268.9672  91.1101 14.98328375183529","mean_motion":14.98328375,"eccentricity":0.000337,"inclination_deg":69.9993,"raan_deg":231.3334,"arg_perigee_deg":268.9672,"mean_anomaly_deg":91.1101,"bstar":-4.7836e-6,"rev_number":18352,"period_min":96.107103357767,"perigee_km":569.71869942968,"apogee_km":574.40313282515,"semimajor_km":6950.1979161274,"source":"CELESTRAK","updated_at":"2026-05-25T13:38:17.792034Z"}}